Location: Winthrop
(48.4780°N, 120.1850°W)
Time: 17:17:49
(UTC-07:00)

SO-50 - Pass Details

Date: 22 May 2022
Orbit: 586 x 697 km, 64.6° (Epoch: 28 June)

Event Time Altitude Azimuth Distance (km) Brightness Sun altitude
Rises 21:59:41 0° 302° (WNW) 3,081 ? -10.4°
Reaches altitude 10° 22:04:30 10° 261° (W) 2,155 ? -10.9°
Maximum altitude 22:05:04 10° 254° (WSW) 2,142 ? -10.9°
Drops below altitude 10° 22:05:37 10° 247° (WSW) 2,152 ? -11.0°
Sets 22:10:25 0° 205° (SSW) 3,046 ? -11.5°
